Location: Unspecified
(0.0000°N, 0.0000°E)
Time: 20:57:49
(UTC+02:00)

Vanguard 1 - Visible Passes

Search period start: 27 August 2014 00:00
Search period end: 06 September 2014 00:00
Orbit: 650 x 3837 km, 34.2° (Epoch: 24 August)

Date Brightness Start Highest point End Pass type
(mag) Time Alt. Az. Time Alt. Az. Time Alt. Az.
27 Aug 13.0 00:08:05 10° WSW 00:29:51 47° NW 00:29:51 47° NW visible
27 Aug 12.8 22:01:53 10° SW 22:25:03 86° NW 22:38:47 32° NE visible
28 Aug 13.3 00:32:08 10° W 00:51:41 37° NW 00:51:41 37° NW visible
28 Aug 13.0 20:00:05 10° SW 20:19:26 55° SE 20:41:49 10° ENE visible
28 Aug 12.9 22:24:14 10° WSW 22:47:21 71° NW 23:00:40 31° NE visible
29 Aug 13.5 00:57:01 10° W 01:13:34 28° NW 01:13:34 28° NW visible
29 Aug 12.9 20:21:36 10° SW 20:41:49 68° SE 21:04:40 10° ENE visible
29 Aug 13.1 22:46:59 10° WSW 23:09:41 58° NW 23:22:32 29° NNE visible
30 Aug 13.7 01:22:48 10° WNW 01:35:25 22° NW 01:35:25 22° NW visible
30 Aug 12.9 20:43:17 10° SW 21:04:08 82° SE 21:27:05 10° NE visible
30 Aug 13.3 23:10:15 10° WSW 23:32:07 47° NW 23:44:19 26° NNE visible
31 Aug 13.8 01:49:31 10° WNW 01:57:12 16° NW 01:57:12 16° NW visible
31 Aug 12.5 06:53:52 10° N 06:56:05 12° NNE 06:58:03 10° NE visible
31 Aug 12.9 21:05:13 10° SW 21:26:27 84° NW 21:49:10 10° NE visible
31 Aug 13.5 23:34:10 10° W 23:54:44 37° NW 00:05:58 23° NNE visible
01 Sep 13.9 02:16:59 10° NW 02:18:50 11° NW 02:18:50 11° NW visible
01 Sep 12.0 07:13:46 10° NNW 07:18:19 19° NNE 07:21:51 10° ENE visible
01 Sep 13.1 21:27:27 10° WSW 21:48:49 70° NW 22:11:00 10° NE visible
01 Sep 13.6 23:58:50 10° W 00:17:38 30° NNW 00:27:25 21° N visible
02 Sep 11.3 07:34:38 10° NNW 07:40:19 32° NNE 07:44:28 10° E visible
02 Sep 13.3 21:50:05 10° WSW 22:11:19 57° NW 22:32:40 10° NE visible
03 Sep 13.7 00:24:21 10° WNW 00:40:52 24° NNW 00:48:36 19° N visible
03 Sep 12.8 05:35:48 10° N 05:39:24 13° NNE 05:42:23 10° NE visible
03 Sep 12.9 19:47:29 10° SW 20:05:43 84° SE 20:29:42 10° NE visible
03 Sep 13.5 22:13:13 10° WSW 22:33:59 46° NW 22:54:12 10° NE visible
04 Sep 13.7 00:50:40 10° WNW 01:04:27 19° NNW 01:09:32 17° N visible
04 Sep 12.4 05:56:09 10° NNW 06:01:57 19° NNE 06:06:11 10° ENE visible
04 Sep 13.0 20:09:19 10° WSW 20:27:59 81° NW 20:51:53 10° NE visible
04 Sep 13.7 22:36:57 10° W 22:56:55 37° NNW 23:15:42 10° NNE visible
05 Sep 13.8 01:17:23 10° NW 01:28:20 16° NNW 01:30:12 15° N visible
05 Sep 13.3 04:00:37 11° NNE 04:00:37 11° NNE 04:02:10 10° NNE visible
05 Sep 11.8 06:17:06 10° NNW 06:24:16 28° NNE 06:29:01 10° E visible
05 Sep 13.2 20:31:28 10° WSW 20:50:24 67° NW 21:13:51 10° NE visible
05 Sep 13.8 23:01:23 10° W 23:20:09 30° NNW 23:37:13 10° NNE visible
